17-06-2023, 00:00:00,    130,    0.0,   15.5,   0.00,   0.00, 1014.1,   47.2, -999.0
17-06-2023, 00:00:10,    129,    0.0,   15.5,   0.00,   0.00, 1014.1,   47.0, -999.0
17-06-2023, 00:00:20,    123,    0.0,   15.4,   0.00,   0.00, 1014.1,   47.1, -999.0
17-06-2023, 00:00:30,    129,    0.0,   15.4,   0.00,   0.00, 1014.1,   47.1, -999.0
17-06-2023, 00:00:40,    129,    0.0,   15.4,   0.00,   0.00, 1014.1,   47.1, -999.0
17-06-2023, 00:00:50,    129,    0.0,   15.4,   0.00,   0.00, 1014.1,   47.0, -999.0
17-06-2023, 00:01:00,    129,    0.0,   15.4,   0.00,   0.00, 1014.1,   47.0, -999.0
17-06-2023, 00:01:10,    129,    0.0,   15.4,   0.00,   0.00, 1014.1,   47.0, -999.0
17-06-2023, 00:01:20,    129,    0.0,   15.3,   0.00,   0.00, 1014.1,   47.0, -999.0
17-06-2023, 00:01:30,    129,    0.0,   15.4,   0.00,   0.00, 1014.1,   47.1, -999.0
17-06-2023, 00:01:40,    129,    0.0,   15.4,   0.00,   0.00, 1014.1,   47.1, -999.0
17-06-2023, 00:01:50,    129,    0.0,   15.3,   0.00,   0.00, 1014.1,   47.3, -999.0
17-06-2023, 00:02:00,    130,    0.0,   15.4,   0.00,   0.00, 1014.1,   47.4, -999.0
17-06-2023, 00:02:10,    138,    0.0,   15.4,   0.00,   0.00, 1014.1,   47.3, -999.0
17-06-2023, 00:02:20,    138,    0.0,   15.3,   0.00,   0.00, 1014.1,   47.2, -999.0
17-06-2023, 00:02:30,    138,    0.0,   15.4,   0.00,   0.00, 1014.1,   47.2, -999.0
17-06-2023, 00:02:40,    138,    0.0,   15.3,   0.00,   0.00, 1014.1,   47.1, -999.0
17-06-2023, 00:02:50,    138,    0.0,   15.4,   0.00,   0.00, 1014.1,   47.3, -999.0
17-06-2023, 00:03:00,    138,    0.0,   15.4,   0.00,   0.00, 1014.1,   47.3, -999.0
17-06-2023, 00:03:10,    137,    0.0,   15.3,   0.00,   0.00, 1014.1,   47.3, -999.0
17-06-2023, 00:03:20,    132,    0.0,   15.4,   0.00,   0.00, 1014.1,   47.3, -999.0
17-06-2023, 00:03:30,    133,    0.0,   15.3,   0.00,   0.00, 1014.1,   47.4, -999.0
17-06-2023, 00:03:40,    133,    0.0,   15.4,   0.00,   0.00, 1014.1,   47.3, -999.0
17-06-2023, 00:03:50,    133,    0.0,   15.2,   0.00,   0.00, 1014.1,   46.8, -999.0
17-06-2023, 00:04:00,    132,    0.0,   15.2,   0.00,   0.00, 1014.1,   47.0, -999.0
17-06-2023, 00:04:09,    133,    0.0,   15.3,   0.00,   0.00, 1014.1,   47.3, -999.0
17-06-2023, 00:04:20,    133,    0.0,   15.3,   0.00,   0.00, 1014.1,   47.3, -999.0
17-06-2023, 00:04:30,    132,    0.0,   15.3,   0.00,   0.00, 1014.1,   47.3, -999.0
17-06-2023, 00:04:39,    132,    0.0,   15.3,   0.00,   0.00, 1014.1,   47.3, -999.0
17-06-2023, 00:04:50,    131,    0.0,   15.3,   0.00,   0.00, 1014.1,   47.4, -999.0
17-06-2023, 00:05:00,    132,    0.0,   15.3,   0.00,   0.00, 1014.1,   47.2, -999.0
17-06-2023, 00:05:10,    132,    0.0,   15.3,   0.00,   0.00, 1014.0,   47.4, -999.0
17-06-2023, 00:05:19,    133,    0.0,   15.3,   0.00,   0.00, 1014.1,   47.3, -999.0
17-06-2023, 00:05:30,    132,    0.0,   15.3,   0.00,   0.00, 1014.1,   47.3, -999.0
17-06-2023, 00:05:40,    131,    0.0,   15.2,   0.00,   0.00, 1014.1,   47.5, -999.0
17-06-2023, 00:05:49,    132,    0.0,   15.3,   0.00,   0.00, 1014.1,   47.5, -999.0
17-06-2023, 00:05:59,    132,    0.0,   15.3,   0.00,   0.00, 1014.1,   47.3, -999.0
17-06-2023, 00:06:10,    132,    0.0,   15.3,   0.00,   0.00, 1014.1,   47.4, -999.0
17-06-2023, 00:06:19,    132,    0.0,   15.4,   0.00,   0.00, 1014.1,   47.5, -999.0
17-06-2023, 00:06:29,    132,    0.0,   15.4,   0.00,   0.00, 1014.0,   47.5, -999.0
17-06-2023, 00:06:39,    156,    0.0,   15.4,   0.00,   0.00, 1014.1,   47.2, -999.0
17-06-2023, 00:06:50,    156,    0.0,   15.3,   0.00,   0.00, 1014.1,   47.4, -999.0
17-06-2023, 00:06:59,    156,    0.0,   15.3,   0.00,   0.00, 1014.1,   47.2, -999.0
17-06-2023, 00:07:09,    156,    0.0,   15.2,   0.00,   0.00, 1014.1,   47.3, -999.0
17-06-2023, 00:07:19,    156,    0.0,   15.2,   0.00,   0.00, 1014.1,   47.5, -999.0
17-06-2023, 00:07:29,    155,    0.0,   15.3,   0.00,   0.00, 1014.0,   47.7, -999.0
17-06-2023, 00:07:39,    155,    0.0,   15.3,   0.00,   0.00, 1014.1,   47.6, -999.0
17-06-2023, 00:07:49,    155,    0.0,   15.2,   0.00,   0.00, 1014.0,   47.6, -999.0
17-06-2023, 00:07:59,    155,    0.0,   15.4,   0.00,   0.00, 1014.0,   47.6, -999.0
17-06-2023, 00:08:09,    156,    0.0,   15.3,   0.00,   0.00, 1014.1,   47.5, -999.0
17-06-2023, 00:08:19,    155,    0.0,   15.3,   0.00,   0.00, 1014.1,   47.4, -999.0
17-06-2023, 00:08:29,    119,    0.0,   15.3,   0.00,   0.00, 1014.1,   47.6, -999.0
17-06-2023, 00:08:39,    119,    0.0,   15.3,   0.00,   0.00, 1014.1,   47.5, -999.0
17-06-2023, 00:08:49,    120,    0.0,   15.3,   0.00,   0.00, 1014.1,   47.6, -999.0
17-06-2023, 00:08:59,    119,    0.0,   15.3,   0.00,   0.00, 1014.1,   47.5, -999.0
17-06-2023, 00:09:09,    119,    0.0,   15.3,   0.00,   0.00, 1014.1,   47.5, -999.0
17-06-2023, 00:09:19,    119,    0.0,   15.3,   0.00,   0.00, 1014.0,   47.4, -999.0
17-06-2023, 00:09:29,    119,    0.0,   15.3,   0.00,   0.00, 1014.0,   47.5, -999.0
17-06-2023, 00:09:39,    119,    0.0,   15.3,   0.00,   0.00, 1014.0,   47.6, -999.0
17-06-2023, 00:09:49,    119,    0.0,   15.2,   0.00,   0.00, 1014.0,   47.6, -999.0
17-06-2023, 00:09:59,    119,    0.0,   15.3,   0.00,   0.00, 1014.0,   47.7, -999.0
17-06-2023, 00:10:09,    120,    0.0,   15.3,   0.00,   0.00, 1014.0,   47.6, -999.0
17-06-2023, 00:10:19,    119,    0.0,   15.3,   0.00,   0.00, 1014.0,   47.5, -999.0
17-06-2023, 00:10:29,    119,    0.0,   15.3,   0.00,   0.00, 1014.1,   47.7, -999.0
17-06-2023, 00:10:39,    147,    0.0,   15.2,   0.00,   0.00, 1014.1,   47.5, -999.0
17-06-2023, 00:10:49,    146,    0.0,   15.2,   0.00,   0.00, 1014.0,   47.4, -999.0
17-06-2023, 00:10:59,    147,    0.0,   15.1,   0.00,   0.00, 1014.0,   47.5, -999.0
17-06-2023, 00:11:09,    148,    0.0,   15.1,   0.00,   0.00, 1014.1,   47.7, -999.0
17-06-2023, 00:11:19,    148,    0.0,   15.1,   0.00,   0.00, 1014.0,   47.8, -999.0
17-06-2023, 00:11:29,    147,    0.0,   15.1,   0.00,   0.00, 1014.0,   47.9, -999.0
17-06-2023, 00:11:39,    147,    0.0,   15.1,   0.00,   0.00, 1014.0,   47.9, -999.0
17-06-2023, 00:11:48,    147,    0.0,   15.1,   0.00,   0.00, 1014.0,   48.1, -999.0
17-06-2023, 00:11:59,    147,    0.0,   15.1,   0.00,   0.00, 1014.0,   48.1, -999.0
17-06-2023, 00:12:09,    147,    0.0,   15.1,   0.00,   0.00, 1014.0,   48.1, -999.0
17-06-2023, 00:12:19,    146,    0.0,   15.3,   0.00,   0.00, 1014.0,   47.9, -999.0
17-06-2023, 00:12:28,    146,    0.0,   15.1,   0.00,   0.00, 1014.0,   47.9, -999.0
17-06-2023, 00:12:39,    147,    0.0,   15.2,   0.00,   0.00, 1014.0,   47.9, -999.0
17-06-2023, 00:12:49,    146,    0.0,   15.1,   0.00,   0.00, 1014.0,   47.9, -999.0
17-06-2023, 00:12:58,    142,    0.0,   15.1,   0.00,   0.00, 1014.0,   47.8, -999.0
17-06-2023, 00:13:08,    142,    0.0,   15.1,   0.00,   0.00, 1014.0,   47.9, -999.0
17-06-2023, 00:13:19,    142,    0.0,   15.2,   0.00,   0.00, 1014.0,   47.9, -999.0
17-06-2023, 00:13:28,    142,    0.0,   15.2,   0.00,   0.00, 1014.0,   48.0, -999.0
17-06-2023, 00:13:38,    142,    0.0,   15.1,   0.00,   0.00, 1014.0,   47.9, -999.0
17-06-2023, 00:13:48,    142,    0.0,   15.1,   0.00,   0.00, 1014.1,   48.0, -999.0
17-06-2023, 00:13:58,    142,    0.0,   15.1,   0.00,   0.00, 1014.0,   48.0, -999.0
17-06-2023, 00:14:08,    142,    0.0,   15.1,   0.00,   0.00, 1014.0,   48.1, -999.0
17-06-2023, 00:14:18,    142,    0.0,   15.1,   0.00,   0.00, 1014.0,   48.1, -999.0
17-06-2023, 00:14:29,    141,    0.0,   15.2,   0.00,   0.00, 1014.0,   47.9, -999.0
17-06-2023, 00:14:38,    123,    0.5,   15.1,   0.00,   0.00, 1014.0,   48.1, -999.0
17-06-2023, 00:14:48,    125,    1.4,   15.2,   0.00,   0.00, 1014.1,   48.4, -999.0
17-06-2023, 00:14:58,    131,    1.0,   15.3,   0.00,   0.00, 1014.1,   48.4, -999.0
17-06-2023, 00:15:08,    128,    1.1,   15.3,   0.00,   0.00, 1014.1,   48.5, -999.0
17-06-2023, 00:15:18,    125,    1.3,   15.3,   0.00,   0.00, 1014.1,   48.4, -999.0
17-06-2023, 00:15:28,    125,    0.5,   15.3,   0.00,   0.00, 1014.1,   48.4, -999.0
17-06-2023, 00:15:38,    125,    0.1,   15.2,   0.00,   0.00, 1014.0,   48.0, -999.0
17-06-2023, 00:15:48,    125,    0.0,   15.1,   0.00,   0.00, 1014.0,   47.9, -999.0
17-06-2023, 00:15:58,    125,    0.0,   15.1,   0.00,   0.00, 1014.0,   48.2, -999.0
17-06-2023, 00:16:08,    125,    0.4,   15.2,   0.00,   0.00, 1014.0,   48.3, -999.0
17-06-2023, 00:16:18,    112,    1.8,   15.3,   0.00,   0.00, 1014.1,   48.5, -999.0
17-06-2023, 00:16:28,    113,    0.6,   15.3,   0.00,   0.00, 1014.1,   48.5, -999.0
17-06-2023, 00:16:38,    113,    0.1,   15.3,   0.00,   0.00, 1014.0,   48.3, -999.0
17-06-2023, 00:16:48,    113,    0.0,   15.2,   0.00,   0.00, 1014.0,   48.1, -999.0
17-06-2023, 00:16:58,    113,    0.0,   15.2,   0.00,   0.00, 1014.0,   48.1, -999.0
17-06-2023, 00:17:08,    113,    0.0,   15.3,   0.00,   0.00, 1014.0,   48.1, -999.0
17-06-2023, 00:17:18,    113,    0.0,   15.2,   0.00,   0.00, 1014.0,   48.0, -999.0
17-06-2023, 00:17:28,    114,    0.0,   15.2,   0.00,   0.00, 1014.0,   48.0, -999.0
17-06-2023, 00:17:38,    101,    1.0,   15.2,   0.00,   0.00, 1014.1,   48.3, -999.0
17-06-2023, 00:17:48,    122,    0.1,   15.3,   0.00,   0.00, 1014.1,   48.4, -999.0
17-06-2023, 00:17:58,    140,    0.3,   15.4,   0.00,   0.00, 1014.1,   48.4, -999.0
17-06-2023, 00:18:08,    136,    1.3,   15.3,   0.00,   0.00, 1014.1,   48.4, -999.0
17-06-2023, 00:18:18,    132,    1.2,   15.3,   0.00,   0.00, 1014.1,   48.4, -999.0
17-06-2023, 00:18:28,    131,    0.8,   15.2,   0.00,   0.00, 1014.1,   48.5, -999.0
17-06-2023, 00:18:38,    131,    0.3,   15.2,   0.00,   0.00, 1014.1,   48.3, -999.0
17-06-2023, 00:18:47,    131,    0.0,   15.1,   0.00,   0.00, 1014.0,   48.1, -999.0
17-06-2023, 00:18:58,    131,    0.4,   15.2,   0.00,   0.00, 1014.0,   48.3, -999.0
17-06-2023, 00:19:08,    131,    0.3,   15.2,   0.00,   0.00, 1014.0,   48.5, -999.0
17-06-2023, 00:19:18,    131,    0.0,   15.1,   0.00,   0.00, 1014.0,   48.2, -999.0
17-06-2023, 00:19:27,    134,    1.2,   15.2,   0.00,   0.00, 1014.1,   48.5, -999.0
17-06-2023, 00:19:38,    130,    1.0,   15.2,   0.00,   0.00, 1014.1,   48.6, -999.0
17-06-2023, 00:19:48,    131,    0.0,   15.2,   0.00,   0.00, 1014.0,   48.3, -999.0
17-06-2023, 00:19:57,    130,    0.0,   15.2,   0.00,   0.00, 1014.0,   48.3, -999.0
17-06-2023, 00:20:07,    131,    0.0,   15.1,   0.00,   0.00, 1014.0,   48.2, -999.0
17-06-2023, 00:20:18,    131,    0.0,   15.1,   0.00,   0.00, 1014.0,   48.3, -999.0
17-06-2023, 00:20:27,    130,    0.0,   15.0,   0.00,   0.00, 1014.0,   48.4, -999.0
17-06-2023, 00:20:37,    129,    0.0,   15.1,   0.00,   0.00, 1014.0,   48.5, -999.0
17-06-2023, 00:20:48,    130,    0.0,   15.1,   0.00,   0.00, 1014.0,   48.5, -999.0
17-06-2023, 00:20:57,    130,    0.0,   15.1,   0.00,   0.00, 1013.9,   48.3, -999.0
17-06-2023, 00:21:07,    131,    0.0,   15.2,   0.00,   0.00, 1013.9,   48.4, -999.0
17-06-2023, 00:21:17,    130,    0.1,   15.2,   0.00,   0.00, 1014.0,   48.5, -999.0
17-06-2023, 00:21:28,    130,    0.2,   15.1,   0.00,   0.00, 1014.1,   48.7, -999.0
17-06-2023, 00:21:37,    131,    0.0,   15.1,   0.00,   0.00, 1014.0,   48.5, -999.0
17-06-2023, 00:21:47,    131,    0.1,   15.1,   0.00,   0.00, 1014.0,   48.6, -999.0
17-06-2023, 00:21:57,    131,    0.0,   15.1,   0.00,   0.00, 1014.0,   48.6, -999.0
17-06-2023, 00:22:07,    130,    0.0,   15.0,   0.00,   0.00, 1014.0,   48.5, -999.0
17-06-2023, 00:22:17,    130,    0.0,   15.1,   0.00,   0.00, 1013.9,   48.4, -999.0
17-06-2023, 00:22:27,    131,    0.0,   15.1,   0.00,   0.00, 1014.0,   48.4, -999.0
17-06-2023, 00:22:37,    130,    0.5,   15.1,   0.00,   0.00, 1014.0,   48.7, -999.0
17-06-2023, 00:22:47,    131,    1.0,   15.2,   0.00,   0.00, 1014.1,   48.8, -999.0
17-06-2023, 00:22:57,    130,    0.4,   15.1,   0.00,   0.00, 1014.0,   48.6, -999.0
17-06-2023, 00:23:07,    130,    0.2,   15.1,   0.00,   0.00, 1014.0,   48.5, -999.0
17-06-2023, 00:23:17,    130,    0.3,   15.0,   0.00,   0.00, 1014.0,   48.6, -999.0
17-06-2023, 00:23:27,    130,    0.3,   15.0,   0.00,   0.00, 1014.0,   48.9, -999.0
17-06-2023, 00:23:37,    130,    0.2,   15.0,   0.00,   0.00, 1014.1,   48.9, -999.0
17-06-2023, 00:23:47,    130,    0.7,   15.1,   0.00,   0.00, 1014.1,   48.9, -999.0
17-06-2023, 00:23:57,    130,    1.1,   15.1,   0.00,   0.00, 1014.1,   48.9, -999.0
17-06-2023, 00:24:07,    129,    0.5,   15.0,   0.00,   0.00, 1014.1,   48.9, -999.0
17-06-2023, 00:24:17,    130,    0.8,   15.1,   0.00,   0.00, 1014.1,   48.9, -999.0
17-06-2023, 00:24:27,    129,    0.8,   15.1,   0.00,   0.00, 1014.1,   49.1, -999.0
17-06-2023, 00:24:37,    129,    1.1,   15.1,   0.00,   0.00, 1014.1,   49.0, -999.0
17-06-2023, 00:24:47,    128,    0.2,   15.0,   0.00,   0.00, 1014.0,   49.0, -999.0
17-06-2023, 00:24:57,    129,    0.0,   15.1,   0.00,   0.00, 1014.0,   48.8, -999.0
17-06-2023, 00:25:07,    128,    0.1,   15.1,   0.00,   0.00, 1014.0,   48.8, -999.0
17-06-2023, 00:25:17,    128,    0.0,   15.0,   0.00,   0.00, 1014.0,   48.9, -999.0
17-06-2023, 00:25:27,    128,    0.0,   15.1,   0.00,   0.00, 1014.0,   48.7, -999.0
17-06-2023, 00:25:37,    128,    0.0,   15.0,   0.00,   0.00, 1014.0,   48.7, -999.0
17-06-2023, 00:25:46,    128,    0.0,   15.1,   0.00,   0.00, 1014.0,   48.9, -999.0
17-06-2023, 00:25:57,    128,    0.0,   15.0,   0.00,   0.00, 1014.0,   48.9, -999.0
17-06-2023, 00:26:07,    128,    0.0,   15.1,   0.00,   0.00, 1014.0,   48.9, -999.0
17-06-2023, 00:26:17,    128,    0.0,   15.1,   0.00,   0.00, 1014.0,   49.0, -999.0
17-06-2023, 00:26:26,    128,    0.0,   15.1,   0.00,   0.00, 1014.0,   49.0, -999.0
17-06-2023, 00:26:37,    128,    0.2,   15.1,   0.00,   0.00, 1014.0,   48.8, -999.0
17-06-2023, 00:26:47,    126,    0.3,   15.1,   0.00,   0.00, 1014.1,   49.1, -999.0
17-06-2023, 00:26:56,    128,    1.1,   15.1,   0.00,   0.00, 1014.1,   49.1, -999.0
17-06-2023, 00:27:06,    126,    0.7,   15.1,   0.00,   0.00, 1014.1,   49.0, -999.0
17-06-2023, 00:27:17,    128,    0.1,   15.0,   0.00,   0.00, 1014.0,   48.6, -999.0
17-06-2023, 00:27:26,    128,    0.0,   14.9,   0.00,   0.00, 1014.0,   48.8, -999.0
17-06-2023, 00:27:36,    128,    0.0,   14.8,   0.00,   0.00, 1014.0,   48.9, -999.0
17-06-2023, 00:27:47,    128,    0.4,   15.0,   0.00,   0.00, 1014.1,   49.4, -999.0
17-06-2023, 00:27:57,    128,    0.5,   15.1,   0.00,   0.00, 1014.1,   49.4, -999.0
17-06-2023, 00:28:06,    128,    0.8,   15.1,   0.00,   0.00, 1014.1,   49.3, -999.0
17-06-2023, 00:28:16,    127,    0.4,   15.0,   0.00,   0.00, 1014.1,   49.3, -999.0
17-06-2023, 00:28:27,    127,    0.7,   15.1,   0.00,   0.00, 1014.1,   49.1, -999.0
17-06-2023, 00:28:36,    127,    0.4,   15.0,   0.00,   0.00, 1014.1,   49.1, -999.0
17-06-2023, 00:28:46,    127,    0.0,   14.9,   0.00,   0.00, 1014.0,   49.0, -999.0
17-06-2023, 00:28:56,    128,    0.0,   15.0,   0.00,   0.00, 1014.0,   49.1, -999.0
17-06-2023, 00:29:06,    127,    0.0,   15.0,   0.00,   0.00, 1014.0,   49.1, -999.0
17-06-2023, 00:29:16,    128,    0.0,   15.0,   0.00,   0.00, 1014.0,   49.1, -999.0
17-06-2023, 00:29:26,    128,    0.3,   15.0,   0.00,   0.00, 1014.1,   49.3, -999.0
17-06-2023, 00:29:36,    128,    0.0,   15.1,   0.00,   0.00, 1014.0,   49.1, -999.0
17-06-2023, 00:29:46,    127,    0.0,   14.9,   0.00,   0.00, 1013.9,   49.0, -999.0
17-06-2023, 00:29:56,    128,    0.0,   14.9,   0.00,   0.00, 1013.9,   49.1, -999.0
17-06-2023, 00:30:06,    127,    0.0,   15.0,   0.00,   0.00, 1014.0,   49.0, -999.0
17-06-2023, 00:30:16,    127,    0.0,   15.0,   0.00,   0.00, 1013.9,   49.2, -999.0
17-06-2023, 00:30:26,    127,    0.0,   15.0,   0.00,   0.00, 1014.0,   49.0, -999.0
17-06-2023, 00:30:36,    127,    0.0,   15.0,   0.00,   0.00, 1014.0,   49.1, -999.0
17-06-2023, 00:30:46,    127,    0.0,   15.0,   0.00,   0.00, 1014.0,   49.2, -999.0
17-06-2023, 00:30:56,    128,    0.0,   15.0,   0.00,   0.00, 1014.0,   49.1, -999.0
17-06-2023, 00:31:06,    127,    0.0,   15.0,   0.00,   0.00, 1014.0,   49.2, -999.0
17-06-2023, 00:31:16,    127,    0.0,   15.1,   0.00,   0.00, 1014.0,   49.2, -999.0
17-06-2023, 00:31:26,    127,    0.0,   15.1,   0.00,   0.00, 1014.0,   49.2, -999.0
17-06-2023, 00:31:36,    127,    0.0,   15.1,   0.00,   0.00, 1014.0,   48.8, -999.0
17-06-2023, 00:31:46,    128,    0.0,   15.1,   0.00,   0.00, 1014.0,   48.9, -999.0
17-06-2023, 00:31:56,    127,    0.0,   15.0,   0.00,   0.00, 1014.0,   49.0, -999.0
17-06-2023, 00:32:06,    127,    0.0,   15.1,   0.00,   0.00, 1013.9,   49.1, -999.0
17-06-2023, 00:32:16,    127,    0.0,   15.0,   0.00,   0.00, 1014.0,   48.9, -999.0
17-06-2023, 00:32:26,    128,    0.0,   15.0,   0.00,   0.00, 1014.0,   48.9, -999.0
17-06-2023, 00:32:36,    128,    0.0,   15.0,   0.00,   0.00, 1013.9,   49.0, -999.0
17-06-2023, 00:32:46,    128,    0.0,   15.1,   0.00,   0.00, 1013.9,   49.0, -999.0
17-06-2023, 00:32:56,    128,    0.0,   15.0,   0.00,   0.00, 1013.9,   48.9, -999.0
17-06-2023, 00:33:06,    128,    0.0,   15.1,   0.00,   0.00, 1014.0,   49.0, -999.0
17-06-2023, 00:33:16,    127,    0.0,   15.1,   0.00,   0.00, 1013.9,   49.0, -999.0
17-06-2023, 00:33:25,    128,    0.0,   15.1,   0.00,   0.00, 1013.9,   49.0, -999.0
17-06-2023, 00:33:36,    127,    0.0,   15.1,   0.00,   0.00, 1013.9,   49.0, -999.0
17-06-2023, 00:33:46,    127,    0.0,   15.0,   0.00,   0.00, 1014.0,   49.1, -999.0
17-06-2023, 00:33:55,    127,    0.0,   14.9,   0.00,   0.00, 1013.9,   48.9, -999.0
17-06-2023, 00:34:05,    127,    0.0,   15.0,   0.00,   0.00, 1014.0,   49.0, -999.0
17-06-2023, 00:34:16,    128,    0.0,   15.1,   0.00,   0.00, 1014.0,   49.0, -999.0
17-06-2023, 00:34:26,    127,    0.0,   15.0,   0.00,   0.00, 1014.0,   49.0, -999.0
17-06-2023, 00:34:35,    127,    0.0,   15.0,   0.00,   0.00, 1014.0,   49.1, -999.0
17-06-2023, 00:34:45,    127,    0.0,   15.0,   0.00,   0.00, 1014.0,   49.2, -999.0
17-06-2023, 00:34:56,    128,    0.0,   15.0,   0.00,   0.00, 1014.0,   49.3, -999.0
17-06-2023, 00:35:05,    128,    0.0,   15.0,   0.00,   0.00, 1014.0,   49.3, -999.0
17-06-2023, 00:35:15,    127,    0.0,   14.9,   0.00,   0.00, 1014.0,   49.3, -999.0
17-06-2023, 00:35:25,    128,    0.0,   14.9,   0.00,   0.00, 1014.0,   49.4, -999.0
17-06-2023, 00:35:35,    127,    0.0,   14.9,   0.00,   0.00, 1014.0,   49.3, -999.0
17-06-2023, 00:35:45,    127,    0.0,   14.9,   0.00,   0.00, 1014.0,   49.4, -999.0
17-06-2023, 00:35:55,    127,    0.0,   14.9,   0.00,   0.00, 1014.0,   49.4, -999.0
17-06-2023, 00:36:05,    127,    0.0,   14.9,   0.00,   0.00, 1014.0,   49.4, -999.0
17-06-2023, 00:36:15,    127,    0.0,   14.9,   0.00,   0.00, 1013.9,   49.2, -999.0
17-06-2023, 00:36:25,    127,    0.0,   14.9,   0.00,   0.00, 1014.0,   49.3, -999.0
17-06-2023, 00:36:35,    127,    0.0,   14.9,   0.00,   0.00, 1014.0,   49.5, -999.0
17-06-2023, 00:36:45,    128,    0.0,   14.9,   0.00,   0.00, 1014.0,   49.5, -999.0
17-06-2023, 00:36:55,    128,    0.0,   15.0,   0.00,   0.00, 1014.0,   49.5, -999.0
17-06-2023, 00:37:05,    127,    0.0,   14.8,   0.00,   0.00, 1014.0,   49.3, -999.0
17-06-2023, 00:37:15,    127,    0.0,   14.9,   0.00,   0.00, 1014.0,   49.4, -999.0
17-06-2023, 00:37:25,    127,    0.0,   14.9,   0.00,   0.00, 1013.9,   49.3, -999.0
17-06-2023, 00:37:35,    128,    0.0,   14.9,   0.00,   0.00, 1014.0,   49.5, -999.0
17-06-2023, 00:37:45,    127,    0.0,   14.9,   0.00,   0.00, 1014.0,   49.5, -999.0
17-06-2023, 00:37:55,    127,    0.0,   14.9,   0.00,   0.00, 1014.0,   49.7, -999.0
17-06-2023, 00:38:05,    127,    0.0,   15.0,   0.00,   0.00, 1014.0,   49.5, -999.0
17-06-2023, 00:38:15,    127,    0.0,   14.9,   0.00,   0.00, 1014.0,   49.4, -999.0
17-06-2023, 00:38:25,    128,    0.0,   14.9,   0.00,   0.00, 1014.0,   49.7, -999.0
17-06-2023, 00:38:35,    128,    0.0,   14.9,   0.00,   0.00, 1014.0,   49.6, -999.0
17-06-2023, 00:38:45,    127,    0.0,   14.9,   0.00,   0.00, 1014.0,   49.5, -999.0
17-06-2023, 00:38:55,    127,    0.0,   14.9,   0.00,   0.00, 1014.0,   49.4, -999.0
17-06-2023, 00:39:05,    127,    0.0,   14.9,   0.00,   0.00, 1014.0,   49.4, -999.0
17-06-2023, 00:39:15,    128,    0.0,   14.8,   0.00,   0.00, 1014.0,   49.4, -999.0
17-06-2023, 00:39:25,    127,    0.0,   14.9,   0.00,   0.00, 1014.0,   49.6, -999.0
17-06-2023, 00:39:35,    128,    0.0,   14.9,   0.00,   0.00, 1014.0,   49.4, -999.0
17-06-2023, 00:39:45,    127,    0.0,   15.0,   0.00,   0.00, 1014.0,   49.4, -999.0
17-06-2023, 00:39:55,    127,    0.0,   14.9,   0.00,   0.00, 1014.0,   49.2, -999.0
17-06-2023, 00:40:05,    127,    0.0,   14.9,   0.00,   0.00, 1014.0,   49.3, -999.0
17-06-2023, 00:40:15,    127,    0.0,   14.8,   0.00,   0.00, 1014.0,   49.4, -999.0
17-06-2023, 00:40:25,    127,    0.0,   14.9,   0.00,   0.00, 1014.0,   49.6, -999.0
17-06-2023, 00:40:34,    128,    0.0,   14.9,   0.00,   0.00, 1014.0,   49.6, -999.0
17-06-2023, 00:40:45,    127,    0.0,   14.9,   0.00,   0.00, 1014.0,   49.6, -999.0
17-06-2023, 00:40:55,    127,    0.0,   14.9,   0.00,   0.00, 1014.0,   49.5, -999.0
17-06-2023, 00:41:04,    127,    0.0,   14.9,   0.00,   0.00, 1014.0,   49.4, -999.0
17-06-2023, 00:41:14,    127,    0.0,   14.9,   0.00,   0.00, 1014.0,   49.6, -999.0
17-06-2023, 00:41:25,    127,    0.0,   14.9,   0.00,   0.00, 1014.0,   49.6, -999.0
17-06-2023, 00:41:35,    128,    0.0,   14.9,   0.00,   0.00, 1014.0,   49.7, -999.0
17-06-2023, 00:41:44,    127,    0.0,   14.9,   0.00,   0.00, 1014.0,   49.7, -999.0
17-06-2023, 00:41:54,    128,    0.0,   14.9,   0.00,   0.00, 1014.0,   49.9, -999.0
17-06-2023, 00:42:05,    127,    0.0,   15.0,   0.00,   0.00, 1014.0,   49.8, -999.0
17-06-2023, 00:42:14,    128,    0.0,   15.0,   0.00,   0.00, 1014.0,   49.7, -999.0
17-06-2023, 00:42:24,    127,    0.0,   14.8,   0.00,   0.00, 1014.0,   49.4, -999.0
17-06-2023, 00:42:35,    127,    0.0,   14.8,   0.00,   0.00, 1014.0,   49.6, -999.0
17-06-2023, 00:42:44,    128,    0.0,   14.9,   0.00,   0.00, 1013.9,   49.6, -999.0
17-06-2023, 00:42:54,    127,    0.0,   14.8,   0.00,   0.00, 1013.9,   49.6, -999.0
17-06-2023, 00:43:04,    127,    0.0,   14.8,   0.00,   0.00, 1014.0,   49.8, -999.0
17-06-2023, 00:43:15,    128,    0.0,   14.8,   0.00,   0.00, 1013.9,   49.8, -999.0
17-06-2023, 00:43:24,    128,    0.0,   14.9,   0.00,   0.00, 1013.9,   49.9, -999.0
17-06-2023, 00:43:34,    128,    0.0,   14.8,   0.00,   0.00, 1014.0,   49.8, -999.0
17-06-2023, 00:43:44,    127,    0.0,   14.9,   0.00,   0.00, 1013.9,   49.8, -999.0
17-06-2023, 00:43:54,    127,    0.0,   14.9,   0.00,   0.00, 1014.0,   49.7, -999.0
17-06-2023, 00:44:04,    127,    0.0,   14.8,   0.00,   0.00, 1013.9,   49.7, -999.0
17-06-2023, 00:44:14,    126,    0.0,   14.8,   0.00,   0.00, 1013.9,   49.7, -999.0
17-06-2023, 00:44:24,    127,    0.0,   14.8,   0.00,   0.00, 1013.9,   49.8, -999.0
17-06-2023, 00:44:34,    127,    0.0,   14.9,   0.00,   0.00, 1014.0,   49.7, -999.0
17-06-2023, 00:44:44,    127,    0.0,   14.8,   0.00,   0.00, 1013.9,   49.7, -999.0
17-06-2023, 00:44:54,    127,    0.0,   14.8,   0.00,   0.00, 1013.9,   49.7, -999.0
17-06-2023, 00:45:04,    128,    0.0,   14.7,   0.00,   0.00, 1014.0,   49.6, -999.0
17-06-2023, 00:45:14,    127,    0.0,   14.8,   0.00,   0.00, 1013.9,   49.8, -999.0
17-06-2023, 00:45:24,    127,    0.0,   14.8,   0.00,   0.00, 1014.0,   49.8, -999.0
17-06-2023, 00:45:34,    128,    0.0,   14.8,   0.00,   0.00, 1013.9,   50.0, -999.0
17-06-2023, 00:45:44,    127,    0.0,   14.8,   0.00,   0.00, 1013.9,   50.0, -999.0
17-06-2023, 00:45:54,    127,    0.0,   14.8,   0.00,   0.00, 1013.9,   50.0, -999.0
17-06-2023, 00:46:04,    127,    0.0,   14.9,   0.00,   0.00, 1013.9,   50.0, -999.0
17-06-2023, 00:46:14,    127,    0.0,   14.8,   0.00,   0.00, 1013.9,   49.8, -999.0
17-06-2023, 00:46:24,    128,    0.0,   14.9,   0.00,   0.00, 1013.9,   49.7, -999.0
17-06-2023, 00:46:34,    127,    0.0,   14.9,   0.00,   0.00, 1014.0,   49.7, -999.0
17-06-2023, 00:46:44,    127,    0.0,   14.9,   0.00,   0.00, 1014.0,   49.9, -999.0